SAS2678 EDDB-ESSA

Flight info

Callsign SAS2678
Flight time N/A
Altitude 38000
Route GERGA3B GERGA M725 RENKI Y89 USEDU DCT BANUB/N0440F390 DCT POKEN DCT VIBAR/N0370F270 Z227 NILUG
Aircraft A20N/M-SDE2E3FGHIRWXY/LB1

Departure

Time 2026-05-08 08:20
Airport Berlin Brandenburg Airport (EDDB)

Arrival

Time N/A
Airport Stockholm-Arlanda Airport (ESSA)
Time Latitude Longitude Altitude Speed Heading
2026-05-08 07:40 52.36134 13.50766 156 ft 0 kts 66°
2026-05-08 08:01 52.36131 13.50757 156 ft 1 kts 66°
2026-05-08 08:01 52.36128 13.50745 155 ft 1 kts 66°
2026-05-08 08:01 52.36127 13.50739 155 ft 0 kts 66°
2026-05-08 08:02 52.36122 13.50722 155 ft 1 kts 69°
2026-05-08 08:02 52.36117 13.50696 154 ft 1 kts 84°
2026-05-08 08:03 52.36117 13.50684 155 ft 1 kts 91°
2026-05-08 08:03 52.36117 13.50669 155 ft 2 kts 99°
2026-05-08 08:03 52.36121 13.50645 155 ft 2 kts 111°
2026-05-08 08:03 52.36127 13.50623 154 ft 2 kts 127°
2026-05-08 08:04 52.36137 13.50605 154 ft 2 kts 140°
2026-05-08 08:04 52.36149 13.50591 154 ft 2 kts 158°
2026-05-08 08:04 52.36156 13.50586 154 ft 0 kts 157°
2026-05-08 08:12 52.36145 13.50593 154 ft 4 kts 157°
2026-05-08 08:12 52.36110 13.50618 154 ft 7 kts 156°
2026-05-08 08:13 52.36052 13.50660 154 ft 11 kts 156°
2026-05-08 08:13 52.35978 13.50711 155 ft 12 kts 158°
2026-05-08 08:13 52.35894 13.50767 155 ft 15 kts 159°
2026-05-08 08:13 52.35787 13.50827 155 ft 18 kts 163°
2026-05-08 08:14 52.35748 13.50833 156 ft 0 kts 160°
2026-05-08 08:14 52.35746 13.50834 156 ft 1 kts 162°
2026-05-08 08:14 52.35737 13.50832 156 ft 4 kts 186°
2026-05-08 08:14 52.35722 13.50789 156 ft 7 kts 250°
2026-05-08 08:15 52.35699 13.50688 156 ft 11 kts 249°
2026-05-08 08:15 52.35666 13.50554 157 ft 15 kts 246°
2026-05-08 08:15 52.35621 13.50376 156 ft 19 kts 248°
2026-05-08 08:15 52.35568 13.50163 156 ft 21 kts 249°
2026-05-08 08:16 52.35511 13.49917 156 ft 24 kts 249°
2026-05-08 08:16 52.35446 13.49651 156 ft 25 kts 248°
2026-05-08 08:16 52.35383 13.49391 160 ft 25 kts 249°
2026-05-08 08:16 52.35338 13.49206 163 ft 16 kts 248°
2026-05-08 08:17 52.35311 13.49084 162 ft 19 kts 251°
2026-05-08 08:17 52.35240 13.48781 159 ft 24 kts 249°
2026-05-08 08:17 52.35175 13.48510 158 ft 27 kts 248°
2026-05-08 08:17 52.35103 13.48221 158 ft 29 kts 248°
2026-05-08 08:18 52.35029 13.47909 158 ft 30 kts 249°
2026-05-08 08:18 52.34955 13.47597 157 ft 20 kts 249°
2026-05-08 08:18 52.34906 13.47390 156 ft 21 kts 249°
2026-05-08 08:18 52.34869 13.47231 154 ft 24 kts 249°
2026-05-08 08:19 52.34788 13.46891 160 ft 24 kts 249°
2026-05-08 08:19 52.34716 13.46760 163 ft 12 kts 173°
2026-05-08 08:19 52.34625 13.46828 161 ft 17 kts 154°
2026-05-08 08:19 52.34577 13.46974 162 ft 15 kts 73°
2026-05-08 08:20 52.34606 13.47088 159 ft 18 kts 69°
2026-05-08 08:20 52.34848 13.48084 164 ft 126 kts 69°
2026-05-08 08:20 52.35239 13.49759 322 ft 176 kts 68°
2026-05-08 08:20 52.35716 13.51715 999 ft 198 kts 69°
2026-05-08 08:21 52.35819 13.53894 2191 ft 194 kts 104°
2026-05-08 08:21 52.35115 13.55780 3252 ft 199 kts 139°
2026-05-08 08:21 52.34319 13.56615 3868 ft 205 kts 151°
2026-05-08 08:21 52.33028 13.57723 4210 ft 211 kts 148°
2026-05-08 08:22 52.31843 13.59063 4328 ft 207 kts 139°
2026-05-08 08:22 52.30915 13.60847 4426 ft 206 kts 111°
2026-05-08 08:22 52.30764 13.63130 4538 ft 208 kts 76°
2026-05-08 08:22 52.31226 13.65476 4846 ft 226 kts 70°
2026-05-08 08:23 52.31765 13.67944 5747 ft 231 kts 70°
2026-05-08 08:23 52.32285 13.70380 6625 ft 234 kts 71°
2026-05-08 08:23 52.32765 13.72941 7262 ft 237 kts 78°
2026-05-08 08:23 52.32915 13.75649 7897 ft 241 kts 91°
2026-05-08 08:24 52.32916 13.78450 8549 ft 253 kts 78°
2026-05-08 08:24 52.33664 13.81105 9230 ft 269 kts 50°
2026-05-08 08:24 52.35192 13.83039 9920 ft 281 kts 23°
2026-05-08 08:24 52.37095 13.83709 10549 ft 289 kts
2026-05-08 08:25 52.39168 13.83732 11184 ft 304 kts 360°
2026-05-08 08:25 52.41326 13.83806 11820 ft 318 kts
2026-05-08 08:25 52.43580 13.84093 12474 ft 331 kts
2026-05-08 08:25 52.45906 13.84559 13132 ft 342 kts
2026-05-08 08:26 52.48285 13.85128 13809 ft 348 kts
2026-05-08 08:26 52.50677 13.85737 14433 ft 351 kts
2026-05-08 08:26 52.53118 13.86367 15045 ft 354 kts
2026-05-08 08:26 52.55585 13.87001 15676 ft 359 kts
2026-05-08 08:27 52.58044 13.87630 16308 ft 362 kts
2026-05-08 08:27 52.60574 13.88274 16967 ft 366 kts
2026-05-08 08:27 52.63106 13.88918 17635 ft 370 kts
2026-05-08 08:27 52.65668 13.89568 18316 ft 375 kts
2026-05-08 08:28 52.68261 13.90226 18930 ft 379 kts
2026-05-08 08:28 52.70863 13.90888 19530 ft 382 kts
2026-05-08 08:28 52.73519 13.91565 20159 ft 385 kts
2026-05-08 08:28 52.76162 13.92240 20786 ft 389 kts
2026-05-08 08:29 52.78878 13.92934 21438 ft 393 kts
2026-05-08 08:29 52.81568 13.93622 22094 ft 396 kts
2026-05-08 08:29 52.84305 13.94324 22770 ft 398 kts
2026-05-08 08:29 52.87068 13.95033 23470 ft 400 kts
2026-05-08 08:30 52.89823 13.95741 24107 ft 402 kts
2026-05-08 08:30 52.92595 13.96445 24704 ft 403 kts
2026-05-08 08:30 52.98163 13.97487 25940 ft 403 kts
2026-05-08 08:31 53.00975 13.97963 26583 ft 403 kts
2026-05-08 08:31 53.05590 13.98776 27675 ft 401 kts
2026-05-08 08:31 53.09271 13.99447 28576 ft 398 kts
2026-05-08 08:32 53.12023 13.99956 29286 ft 395 kts